sat.trackr.live / text

‹ back to catalog

UNKNOWN

NORAD 82693

UNKNOWN UNKNOWN UNKNOWN

§ Identity

Operator
Country
Launch date
Launch site
Launch vehicle
Mass (kg)
RCS (m²)

External: N2YO · Heavens-Above

§ Orbital elements

Epoch: 2026-05-23T21:47:40.519968Z

Period
105.08 min
Inclination
100.5255°
Eccentricity
0.0042318
Mean motion
13.70382861 rev/d
Perigee alt
967.0 km
Apogee alt
1,029.4 km
Semi-major
7,376.3 km
B*
2.0925e-3
RAAN
127.4304°
Arg perigee
345.1363°
Mean anomaly
14.8533°
Rev number
57,596

§ Raw data

UNKNOWN1 82693U          26143.90810787  .00001809  00000+0  20925-2 0  99912 82693 100.5255 127.4304 0042318 345.1363  14.8533 13.70382861575967

JSON: /api/v1/satellites/82693 · /tle

For live sub-satellite position, see the globe view (requires WebGL).

§ Visibility from observer

Set your observer location to see the next 7 days of passes ≥ 10°. The values pass through the URL so the page stays shareable.

No JS? Fill the form by hand. The geolocation button needs JavaScript.